Content
SEND FEEDBACK

Daily
Averages
Monthly
Summary
Greece

KALAMATA, GREECE


Home > Europe > Greece
Elevation: 26 feet     Latitude: 37 04N     Longitude: 022 01E

WEATHER
 
SELECT A DAY
Number of Records: 252,841;   Date Range: 7/1/96 - 11/21/14
 
SHARE

PRINT THIS DATA

[ ← Previous Day ]
WEATHER ALMANAC - OCTOBER 12, 2013
[ Next Day → ]
[ °C ]   °F
Weather ElementAverageHighLow
Temperature71.5 °F82.4 °F (2:50 pm)59 °F (7:20 am)
Dewpoint63.6 °F68 °F (4:50 pm)57.2 °F (7:20 am)
Humidity77.9 %94 % (1:50 am)54 % (11:50 am)
Barometer30.19 in30.24 in (9:50 am)30.18 in (1:50 am)
Wind Speed0.9 mph6.9 mph (3:20 pm)
Weather ElementAverage
Visibility6.2 mi
Wind DirectionNNE (29.5 °)

Weather ElementTotal
Precipitation---
Cooling Degree Days5.7 (Base 65)
Growing Degree Days20.7 (Base 50)
Averaged from 37 records on October 12, 2013
WEATHER CONDITIONS BREAKOUT
WIND DIRECTION BREAKOUT
WEATHER BY HOUR - OCTOBER 12, 2013
[ °C ]   °F
Local TimeTemperatureDewpointHumidityBarometerVisibilityWind DirectionWind SpeedGust SpeedPrecipitationEventsConditions
1:50 AM64.4 °F62.6 °F94 %30.18 in6.2 miCalmPartly Cloudy
2:50 AM64.4 °F62.6 °F94 %30.18 in6.2 miCalmPartly Cloudy
3:50 AM62.6 °F60.8 °F94 %30.18 in6.2 miCalmPartly Cloudy
4:50 AM60.8 °F59.0 °F94 %30.18 in6.2 miCalmPartly Cloudy
5:50 AM60.8 °F59.0 °F94 %30.18 inCalmClear
6:20 AM60.8 °F59.0 °F94 %30.21 inCalmClear
6:50 AM60.8 °F59.0 °F94 %30.18 inCalmClear
7:20 AM59.0 °F57.2 °F94 %30.18 in6.2 miCalmPartly Cloudy
7:50 AM60.8 °F59.0 °F94 %30.18 in6.2 miCalmScattered Clouds
8:20 AM60.8 °F59.0 °F94 %30.18 in6.2 miCalmScattered Clouds
8:50 AM62.6 °F60.8 °F94 %30.21 in6.2 miCalmPartly Cloudy
9:20 AM64.4 °F62.6 °F94 %30.21 in6.2 miCalmPartly Cloudy
9:50 AM68.0 °F64.4 °F88 %30.24 in6.2 miCalmPartly Cloudy
10:20 AM71.6 °F64.4 °F78 %30.24 in6.2 miCalmPartly Cloudy
10:50 AM77.0 °F60.8 °F57 %30.24 inCalmClear
11:20 AM78.8 °F62.6 °F57 %30.24 inCalmClear
11:50 AM80.6 °F62.6 °F54 %30.21 inCalmClear
12:50 PM80.6 °F62.6 °F54 %30.21 inCalmClear
1:20 PM80.6 °F62.6 °F54 %30.21 inCalmClear
1:50 PM80.6 °F62.6 °F54 %30.21 inSouth (190°)4.6 mphClear
2:20 PM80.6 °F64.4 °F58 %30.21 inSouth (190°)4.6 mphClear
2:50 PM82.4 °F66.2 °F58 %30.18 inCalmClear
3:20 PM80.6 °F66.2 °F61 %30.18 in6.2 miSouth (180°)6.9 mphPartly Cloudy
3:50 PM80.6 °F66.2 °F61 %30.18 inSouth (180°)5.8 mphClear
4:20 PM80.6 °F66.2 °F61 %30.18 inSouth (170°)4.6 mphClear
4:50 PM78.8 °F68.0 °F69 %30.18 inSouth (180°)5.8 mphClear
5:20 PM78.8 °F68.0 °F69 %30.18 inCalmClear
5:50 PM78.8 °F68.0 °F69 %30.18 inCalmClear
6:20 PM78.8 °F68.0 °F69 %30.18 inCalmClear
6:50 PM75.2 °F68.0 °F78 %30.18 inCalmClear
7:20 PM71.6 °F68.0 °F88 %30.18 inCalmClear
7:50 PM71.6 °F66.2 °F83 %30.18 inCalmClear
8:20 PM71.6 °F66.2 °F83 %30.18 inCalmClear
8:50 PM69.8 °F66.2 °F88 %30.18 inCalmClear
9:50 PM69.8 °F66.2 °F88 %30.21 inCalmClear
10:50 PM68.0 °F64.4 °F88 %30.18 inCalmClear
11:50 PM66.2 °F62.6 °F88 %30.18 inCalmClear
Hourly data recorded from LGKL, located miles away from Kalamata, Greece







STORIES FROM OUR PARTNERS